Погода в Карпаче

Польша     50°46′36″N   15°45′31″E
темп.,
°C
ветер,
м/с
пор.,
м/с
влажн.,
%
обл.,
%
осадки,
мм/ч
давл.,
гПа
погр.,
м
28 февраля, вс
вс2801:00−2ссз129368 0.1 1039160
04:00−3з119230 0.0 103821
07:00−1зюз127459 0.0 103844
10:00+4сз125360 0.0 1037275
13:00+6сз234630 0.0 1036676
16:00+5сз23650 0.0 1034432
19:000ссз22930 0.0 103548
22:00+1ссз249722 0.0 1035169
1 марта, пн
пн101:000ссз229430 0.0 103654
04:000с229322 0.0 103533
07:000с118820 0.0 103624
10:00+7св11580 0.0 1036317
13:00+9всв12510 0.0 1036718
16:00+7св11650 0.0 1034373
19:00+2юв01870 0.0 103522
22:00+2зюз01830 0.0 103522
2 марта, вт
вт201:00+2юз11740 0.0 103522
04:00+2зюз11740 0.0 103422
07:00+1зюз11720 0.0 103522
10:00+8юз11520 0.0 1035233
13:00+11ссв01480 0.0 1034554
16:00+9в01610 0.0 1032274
19:00+4зюз01840 0.0 103322
22:00+3юз11830 0.0 103322
3 марта, ср
ср301:00+2юз11780 0.0 103322
04:00+2зюз11720 0.0 103222
07:00+2юз11710 0.0 103222
10:00+8ююз115517 0.0 1031248
13:00+11ююз115025 0.0 1029629
16:00+9юз11604 0.0 1027439
19:00+4юз11862 0.0 102722
22:00+2юз228155 0.0 102627
4 марта, чт
чт401:00+2юз228259 0.0 102428
04:00+2юз228579 0.0 102229
07:00+2юз228589 0.0 102055
10:00+6юз247297 0.0 1018323
13:00+7юз367198 0.1 1016797
16:00+4юз2792100 0.7 1014542
19:00+4з2994100 1.4 1014822
22:00+3зсз3996100 1.2 1014705